Weather Roundup
Issued by NWS Chicago, IL

Home | Current Version | Previous Version | Text Only | Print | Product List | Glossary Off
Versions: 1 2 3 4 5 6 7 8 9 10 11 12 13 14 15 16 17 18 19 20 21 22 23 24 25 26 27 28 29 30 31 32 33 34 35 36 37 38 39 40 41 42 43 44 45 46 47 48 49 50

000
NZUS59 KLOT 051508
HRRLOT

CHICAGO AREA WEATHER ROUNDUP
NATIONAL WEATHER SERVICE CHICAGO/ROMEOVILLE IL
1000 AM CDT TUE MAY 05 2015

NOTE: "FAIR" INDICATES FEW OR NO CLOUDS BELOW 12,000 FEET WITH NO
SIGNIFICANT WEATHER AND/OR OBSTRUCTIONS TO VISIBILITY.

* THESE STATIONS ARE NOT UNDER NWS QUALITY CONTROL. THEY ALSO MAY NOT
  REPORT WEATHER SUCH AS PRECIPITATION OR FOG.

ILZ005-006-012>014-019>023-051600-
NORTHEAST ILLINOIS

CITY           SKY/WX    TMP DP  RH WIND       PRES   REMARKS
OHARE          CLOUDY    50  49  96 E10       30.22R
MIDWAY         CLOUDY    53  52  96 NE10      30.22S FOG
AURORA         CLOUDY    57  53  86 E10       30.22R FOG
LANSING*       LGT RAIN  51  49  93 NE5       30.21F
JOLIET*        LGT RAIN  57  56  97 NE5       30.21R
WAUKEGAN       LGT RAIN  48  46  93 NE9       30.25R
DUPAGE AIRPORT CLOUDY    54  53  97 NE12      30.22R FOG
WHEELING       CLOUDY    49  47  93 NE6       30.25S
KANKAKEE*      PTSUNNY   69  63  80 SE8       30.19S
MORRIS*        CLOUDY    57  56  96 E6        30.18R FOG
LEWIS AIRPORT* LGT RAIN  55  54  97 NE5       30.22R
NORTHERLY IS     N/A     47  45  93 NE3         N/A
$$

WIZ051-052-058>065-066-070>072-051600-
SOUTHEAST WISCONSIN

CITY           SKY/WX    TMP DP  RH WIND       PRES   REMARKS
MILWAUKEE      LGT RAIN  47  42  83 E12       30.28R
KENOSHA*       LGT RAIN  48  45  89 NE8       30.27R
RACINE*        LGT RAIN  46  43  89 NE9       30.28R
WAUKESHA       LGT RAIN  48  46  93 E12       30.28R
$$

INZ001>003-010>013-019-020-051600-
NORTHWEST INDIANA

CITY           SKY/WX    TMP DP  RH WIND       PRES   REMARKS
GARY*          LGT RAIN  50 N/A N/A CALM      30.21S
MICHIGAN CITY* NOT AVBL
RENSSELAER*    NOT AVBL
VALPARAISO     CLOUDY    66  62  87 CALM      30.22R
$$

LMZ740>746-051600-
SOUTHERN LAKE MICHIGAN

STATION/POSITION TIME  SKY/WX   TEMP WIND        PRES    VSBY
                                AIR  DIR/SP/G
                 (UTC)          (F)  (DEG/KT/KT) (MB)    (MI)
HARRISON CRIB    1400            46   80/ 16/ 19   N/A
BURNHAM HARBOR   1500            47   30/  4/  7   N/A
CALUMET HARBOR   1400            47   60/  5/ 11   N/A
BURNS HARBOR     1400            51   50/  7/  8 1023.4R
MICHIGAN CITY    1400            51   30/ 11/ 13   N/A
$$

ABBREVIATIONS USED IN REMARKS
   TC - TEMPERATURE IN CELSIUS
  WCI - WIND CHILL INDEX
   HX - HEAT INDEX
  VSB - VISIBILITY
$$



USA.gov is the U.S. government's official web portal to all federal, state and local government web resources and services.